Location: Hurstbourne Priors
(51.2000°N, 1.3667°W)
Time: 19:57:19
(UTC+00:00)

Transit 4A - Pass Details

Date: 26 April 2021
Orbit: 870 x 974 km, 66.8° (Epoch: 09 May)

Event Time Altitude Azimuth Distance (km) Brightness Sun altitude
Rises 07:14:15 0° 319° (NW) 3,517 10.5 21.7°
Reaches altitude 10° 07:16:51 10° 314° (NW) 2,560 9.8 22.1°
Maximum altitude 07:22:27 46° 243° (WSW) 1,168 8.4 22.9°
Drops below altitude 10° 07:27:56 10° 172° (S) 2,512 10.5 23.8°
Sets 07:30:28 0° 166° (SSE) 3,445 11.2 24.2°
